This is the latest recevied weather packets stored in our database for station/object HB9UQS-13. If no packets are shown the sender has not sent any weather packets the latest 1 day(s).
| Time | Temp. | Humidity | Pressure | Rain* | Wind** | Luminosity | Snow |
|---|---|---|---|---|---|---|---|
| 1777968450 | 11.67° C | 93% | 924.1 hPa | 0 mm | 0 m/s | 0 W/m² | - |
| 1777966650 | 10.56° C | 94% | 924.3 hPa | 0 mm | 0 m/s | 0 W/m² | - |
| 1777964850 | 10° C | 96% | 924.7 hPa | 0 mm | 0.89 m/s, 257° | 0 W/m² | - |
| 1777963050 | 9.44° C | 96% | 924.9 hPa | 0 mm | 1.34 m/s, 276° | 0 W/m² | - |
| 1777961250 | 8.89° C | 96% | 925.1 hPa | 0 mm | 1.34 m/s, 289° | 0 W/m² | - |
| 1777959450 | 8.89° C | 97% | 925.2 hPa | 0 mm | 1.79 m/s, 290° | 0 W/m² | - |
| 1777957650 | 8.89° C | 97% | 925 hPa | 0 mm | 1.79 m/s, 281° | 0 W/m² | - |
| 1777955850 | 8.89° C | 97% | 925.1 hPa | 0 mm | 1.79 m/s, 233° | 0 W/m² | - |
| 1777954050 | 8.33° C | 97% | 925.1 hPa | 0 mm | 0.45 m/s, 93° | 0 W/m² | - |
| 1777952249 | 8.33° C | 97% | 925.2 hPa | 0 mm | 0 m/s | 0 W/m² | - |
| 1777950451 | 8.33° C | 97% | 925.2 hPa | 0 mm | 0 m/s | 0 W/m² | - |
| 1777948650 | 8.33° C | 97% | 925.6 hPa | 0 mm | 0.45 m/s, 264° | 0 W/m² | - |
| 1777946850 | 7.78° C | 97% | 925.6 hPa | 0 mm | 0 m/s | 0 W/m² | - |
| 1777945050 | 7.78° C | 97% | 925.9 hPa | 0 mm | 0.45 m/s, 243° | 0 W/m² | - |
| 1777943250 | 7.22° C | 97% | 925.9 hPa | 0 mm | 0 m/s | 0 W/m² | - |
| 1777941449 | 7.78° C | 97% | 926.4 hPa | 0 mm | 0 m/s | 0 W/m² | - |
| 1777939650 | 7.22° C | 97% | 926.7 hPa | 0 mm | 0 m/s | 0 W/m² | - |
| 1777937850 | 7.78° C | 96% | 927 hPa | 0 mm | 0.45 m/s, 306° | 0 W/m² | - |
| 1777936050 | 6.67° C | 96% | 927.4 hPa | 0 mm | 0 m/s | 0 W/m² | - |
| 1777934250 | 6.11° C | 95% | 927.5 hPa | 0 mm | 0 m/s | 0 W/m² | - |
| 1777932450 | 5.56° C | 95% | 927.6 hPa | 0 mm | 0.45 m/s, 198° | 0 W/m² | - |
| 1777930650 | 5° C | 94% | 927.8 hPa | 0 mm | 0 m/s | 0 W/m² | - |
| 1777928849 | 6.11° C | 94% | 928 hPa | 0 mm | 0.45 m/s, 122° | 0 W/m² | - |
* Rain latest hour (hover to see other rain measurements)
** Current wind speed in m/s (hover to see current wind gust speed)